CW5084 Weather Reports


time (UTC)temp
C
wind
direction
speed
KPH
gust
KPH
rain 1hr
cm
rain 24hr
cm
rain mn
cm
humidity
%
barometer
mb
20260507031044 5 313 3.2 4.8 0.00 1.27 1.27 95 1009.4
20260507030043 5 313 0.0 0.0 0.00 1.30 1.27 95 1009.4
20260507025043 5 313 0.0 0.0 0.00 1.32 1.27 95 1009.2
20260507024043 5 313 0.0 4.8 0.00 1.37 1.27 95 1009.3
20260507023043 5 313 0.0 0.0 0.00 1.40 1.27 95 1009.3
20260507022043 5 313 0.0 0.0 0.00 1.40 1.27 95 1009.3
20260507021043 5 313 0.0 0.0 0.00 1.40 1.27 95 1009.3
20260507015043 5 313 0.0 0.0 0.00 1.40 1.27 95 1009.5
20260507014043 5 313 0.0 0.0 0.00 1.40 1.27 95 1009.3
20260507013043 5 313 0.0 0.0 0.00 1.40 1.27 95 1009.3
20260507012043 5 313 0.0 0.0 0.00 1.40 1.27 95 1009.4
20260507011043 5 313 0.0 0.0 0.00 1.40 1.27 95 1009.3
20260507004042 5 313 0.0 0.0 0.00 1.40 1.27 95 1009.1
20260507003043 5 313 0.0 0.0 0.00 1.40 1.27 95 1009.0
20260507002043 5 313 0.0 0.0 0.00 1.40 1.27 95 1008.7
20260507001043 5 313 0.0 4.8 0.00 1.40 1.27 95 1008.8
20260507000043 5 313 1.6 6.4 0.00 1.42 1.27 95 1008.7
20260506235043 5 313 4.8 6.4 0.00 1.42 1.27 95 1008.5
20260506234042 5 313 3.2 4.8 0.00 1.45 1.27 95 1008.2
20260506233042 5 313 1.6 4.8 0.00 1.45 1.27 95 1008.1
20260506232043 5 313 0.0 4.8 0.00 1.47 1.27 95 1007.6
20260506231043 5 313 3.2 4.8 0.00 1.47 1.27 95 1007.7
20260506225042 5 313 4.8 8.0 0.00 1.47 1.27 95 1007.7
20260506224042 5 313 3.2 12.9 0.00 1.47 1.27 95 1007.9
20260506223042 5 313 6.4 9.7 0.00 1.47 1.27 96 1007.9
20260506222042 5 313 6.4 9.7 0.00 1.47 1.27 96 1007.7
20260506221042 5 311 4.8 9.7 0.00 1.47 1.27 96 1007.9
20260506220042 5 311 9.7 9.7 0.00 1.47 1.27 96 1007.7
20260506215042 5 312 4.8 16.1 0.00 1.47 1.27 96 1007.6
20260506214042 5 311 8.0 16.1 0.00 1.47 1.27 96 1007.5
20260506213042 5 311 12.9 16.1 0.00 1.47 1.27 96 1007.5
20260506212042 5 311 8.0 19.3 0.00 1.47 1.27 96 1007.4
20260506205042 5 313 14.5 16.1 0.00 1.47 1.27 96 1007.0
20260506204042 5 321 4.8 17.7 0.03 1.47 1.27 96 1006.8
20260506203042 5 315 9.7 20.9 0.03 1.47 1.27 96 1006.7
20260506202042 5 321 19.3 20.9 0.03 1.50 1.27 95 1006.6
20260506201042 6 355 16.1 17.7 0.05 1.50 1.27 95 1006.6
20260506200042 6 351 8.0 19.3 0.08 1.50 1.27 96 1006.6
20260506194042 6 317 8.0 16.1 0.08 1.47 1.24 95 1006.5
20260506193042 6 309 6.4 19.3 0.08 1.47 1.24 95 1006.3
20260506192041 6 324 6.4 17.7 0.08 1.47 1.24 95 1006.4
20260506191042 6 300 6.4 20.9 0.05 1.45 1.22 95 1006.3
20260506190042 6 326 3.2 17.7 0.03 1.42 1.19 95 1006.2
20260506185041 6 338 8.0 14.5 0.00 1.40 1.17 95 1006.1
20260506183042 6 323 6.4 14.5 0.03 1.45 1.17 96 1005.7
20260506181042 6 316 8.0 17.7 0.08 1.52 1.17 95 1005.6
20260506180042 6 320 14.5 16.1 0.08 1.52 1.17 95 1005.3
20260506175041 6 320 12.9 16.1 0.08 1.52 1.17 95 1005.2
20260506174041 6 321 3.2 9.7 0.08 1.50 1.14 96 1005.2
20260506173041 6 321 3.2 12.9 0.08 1.50 1.14 96 1005.2
20260506172041 6 325 9.7 14.5 0.05 1.47 1.12 96 1005.1
20260506171041 6 327 8.0 14.5 0.05 1.45 1.09 95 1005.0
20260506170041 6 330 6.4 12.9 0.05 1.45 1.09 95 1004.9
20260506165041 6 330 8.0 12.9 0.05 1.45 1.09 95 1004.9
20260506164041 6 332 3.2 9.7 0.03 1.42 1.07 95 1004.9
20260506163041 6 331 4.8 14.5 0.03 1.42 1.07 95 1005.0
20260506162041 6 321 4.8 16.1 0.05 1.42 1.07 95 1005.0
20260506161041 6 322 6.4 14.5 0.03 1.40 1.04 95 1005.0
20260506160041 6 328 1.6 12.9 0.05 1.40 1.04 95 1005.0
20260506155041 6 331 6.4 12.9 0.08 1.40 1.04 95 1005.1
20260506154041 6 332 4.8 9.7 0.10 1.40 1.04 95 1004.9
20260506153041 6 332 4.8 12.9 0.13 1.40 1.04 95 1005.1
20260506152041 6 339 12.9 12.9 0.13 1.37 1.02 95 1004.9
20260506151041 6 343 3.2 4.8 0.15 1.37 1.02 95 1004.6
20260506150041 6 343 0.0 6.4 0.15 1.35 0.99 95 1004.7
20260506145041 6 343 0.0 6.4 0.15 1.32 0.97 95 1004.8
20260506144041 6 343 4.8 9.7 0.15 1.30 0.94 95 1004.7
20260506142041 6 341 3.2 8.0 0.15 1.24 0.89 94 1004.7
20260506141041 6 340 3.2 6.4 0.18 1.22 0.86 94 1004.8
20260506140040 6 340 4.8 8.0 0.18 1.19 0.84 94 1004.7
20260506135040 6 340 0.0 8.0 0.20 1.17 0.81 94 1004.6
20260506134040 6 340 3.2 8.0 0.23 1.14 0.79 95 1004.8
20260506133040 6 340 6.4 8.0 0.23 1.12 0.76 94 1004.9
20260506132040 6 340 1.6 8.0 0.23 1.09 0.74 94 1004.9
20260506131041 6 340 3.2 8.0 0.23 1.04 0.69 95 1004.8
20260506125040 6 340 4.8 6.4 0.20 0.97 0.61 95 1004.9
20260506124040 6 340 1.6 8.0 0.18 0.91 0.56 95 1004.8
20260506123040 6 340 6.4 8.0 0.15 0.89 0.53 95 1004.8
20260506122040 6 340 4.8 8.0 0.15 0.86 0.51 95 1004.8
20260506121040 6 340 4.8 8.0 0.15 0.81 0.46 95 1004.9
20260506120040 6 340 6.4 9.7 0.18 0.79 0.43 94 1004.9
20260506115040 6 339 4.8 9.7 0.18 0.76 0.41 95 1005.0
20260506114040 6 342 4.8 9.7 0.18 0.74 0.38 95 1004.9
20260506112040 6 5 4.8 6.4 0.18 0.71 0.36 95 1004.8
20260506111040 6 5 1.6 8.0 0.15 0.66 0.30 95 1005.0
20260506103039 5 355 3.2 12.9 0.13 0.56 0.20 95 1005.6
20260506102040 6 5 4.8 17.7 0.10 0.56 0.18 95 1005.5
20260506100039 6 5 8.0 14.5 0.08 0.51 0.13 94 1005.9
20260506095039 6 344 9.7 9.7 0.08 0.48 0.10 94 1006.1
20260506094039 7 350 4.8 9.7 0.08 0.48 0.10 95 1006.0
20260506093039 7 355 1.6 16.1 0.08 0.46 0.08 95 1006.2
20260506092039 6 344 9.7 19.3 0.08 0.46 0.08 95 1006.1
20260506091039 7 329 14.5 17.7 0.05 0.43 0.05 95 1006.1
20260506090039 7 355 3.2 9.7 0.05 0.43 0.05 94 1005.9
20260506085039 7 351 3.2 9.7 0.03 0.41 0.03 95 1005.9
20260506084039 7 347 4.8 16.1 0.03 0.41 0.03 95 1006.1
20260506083039 7 5 4.8 12.9 0.00 0.38 0.00 95 1005.9
20260506082039 7 5 4.8 12.9 0.00 0.38 0.00 95 1006.0
20260506081039 7 34 6.4 9.7 0.00 0.38 0.00 95 1005.8
20260506073039 7 48 3.2 8.0 0.00 0.51 0.00 94 1005.7
20260506072039 7 48 3.2 14.5 0.00 0.51 0.00 95 1005.9
20260506071038 7 55 1.6 11.3 0.00 0.51 0.00 94 1005.8
20260506062038 7 293 11.3 22.5 0.00 0.51 0.00 94 1006.5
20260506061038 7 22 1.6 8.0 0.00 0.53 0.00 94 1007.1
20260506051038 7 9 0.0 6.4 0.00 0.53 0.00 93 1008.2
20260506044038 7 9 1.6 6.4 0.00 0.53 0.00 93 1007.9
20260506043038 8 9 1.6 6.4 0.00 0.53 0.00 93 1007.8
20260506042038 8 9 1.6 6.4 0.00 0.53 0.00 93 1007.7
20260506040037 7 9 3.2 6.4 0.03 0.53 0.00 93 1008.3
20260506034037 7 5 1.6 4.8 0.10 0.53 0.53 92 1008.3
20260506033037 8 5 0.0 6.4 0.13 0.53 0.53 92 1008.1
20260506032037 8 5 1.6 4.8 0.13 0.53 0.53 91 1008.5